sat.trackr.live / text

‹ back to catalog

STARLINK-6044

NORAD 56479 · 2023-064AH

PAYLOAD ACTIVE UNKNOWN

§ Identity

Operator
Country
US
Launch date
2023-05-10
Launch site
AFWTR
Launch vehicle
Mass (kg)
RCS (m²)

Purposes: comms

External: N2YO · Heavens-Above · Gunter

§ Orbital elements

Epoch: 2026-09-20T22:00:03.000096Z

Period
95.64 min
Inclination
70.0004°
Eccentricity
0.0002038
Mean motion
15.05652378 rev/d
Perigee alt
548.1 km
Apogee alt
550.9 km
Semi-major
6,927.6 km
B*
-3.5504e-4
RAAN
351.9396°
Arg perigee
237.9261°
Mean anomaly
329.5529°
Rev number
572

§ Raw data

STARLINK-60441 56479U 23064AH  26263.91670139 -.00005233  00000+0 -35504-3 0  99952 56479  70.0004 351.9396 0002038 237.9261 329.5529 15.05652378  5724

JSON: /api/v1/satellites/56479 · /tle

For live sub-satellite position, see the globe view (requires WebGL).

§ Visibility from observer

Set your observer location to see the next 7 days of passes ≥ 10°. The values pass through the URL so the page stays shareable.

No JS? Fill the form by hand. The geolocation button needs JavaScript.